FW2972 Weather Reports


Display with metric or nautical units.
time (UTC)temp
F
wind
direction
speed
MPH
gust
MPH
rain 1hr
in
rain 24hr
in
rain mn
in
humidity
%
barometer
mb
20260904005346 85 212 1.0 1.0 0.00 0.00 0.00 88 1013.3
20260904004841 85 228 1.0 2.0 0.00 0.00 0.00 87 1013.0
20260904004338 85 192 2.0 3.0 0.00 0.00 0.00 87 1013.2
20260904003837 85 130 0.0 2.0 0.00 0.00 0.00 87 1013.2
20260904003333 85 146 1.0 2.0 0.00 0.00 0.00 86 1013.3
20260904002828 85 187 0.0 5.0 0.00 0.00 0.00 86 1013.4
20260904002325 85 179 2.0 4.0 0.00 0.00 0.00 86 1013.5
20260904001824 85 136 2.0 7.0 0.00 0.00 0.00 86 1013.4
20260904001319 85 151 1.0 6.0 0.00 0.00 0.00 86 1013.4
20260904000814 86 145 2.0 4.0 0.00 0.00 0.00 86 1013.3
20260904000314 86 158 1.0 5.0 0.00 0.00 0.00 86 1013.3
20260903235808 86 203 1.0 6.0 0.00 0.00 0.00 86 1013.5
20260903235305 86 195 0.0 7.0 0.00 0.00 0.00 86 1013.4
20260903234803 86 128 1.0 4.0 0.00 0.00 0.00 86 1013.4
20260903234300 86 145 1.0 7.0 0.00 0.00 0.00 86 1013.3
20260903233755 86 160 3.0 8.0 0.00 0.00 0.00 86 1013.3
20260903233252 86 162 2.0 8.0 0.00 0.00 0.00 85 1013.5
20260903232750 86 181 1.0 6.0 0.00 0.00 0.00 85 1013.1
20260903232247 86 199 1.0 5.0 0.00 0.00 0.00 85 1013.2
20260903231745 86 146 5.0 8.0 0.00 0.00 0.00 85 1013.0
20260903231241 86 186 1.0 8.0 0.00 0.00 0.00 85 1013.0
20260903230737 86 127 0.0 7.0 0.00 0.00 0.00 85 1013.1
20260903230231 86 158 4.0 7.0 0.00 0.00 0.00 85 1013.2
20260903225727 87 130 2.0 5.0 0.00 0.00 0.00 85 1013.1
20260903225224 86 154 0.0 9.0 0.00 0.00 0.00 85 1013.3
20260903224720 87 150 1.0 9.0 0.00 0.00 0.00 85 1013.4
20260903224216 86 136 2.0 6.0 0.00 0.00 0.00 85 1013.4
20260903223715 87 235 0.0 2.0 0.00 0.00 0.00 85 1013.5
20260903223214 86 116 1.0 6.0 0.00 0.00 0.00 85 1013.6
20260903222709 87 186 2.0 4.0 0.00 0.00 0.00 85 1013.5
20260903222208 87 139 0.0 7.0 0.00 0.00 0.00 85 1013.4
20260903221703 87 103 4.0 11.0 0.00 0.00 0.00 84 1013.5
20260903221202 87 186 0.0 5.0 0.00 0.00 0.00 85 1013.5
20260903220701 87 157 3.0 6.0 0.00 0.00 0.00 85 1013.8
20260903220155 87 146 0.0 5.0 0.00 0.00 0.00 84 1013.7
20260903215654 87 143 6.0 9.0 0.00 0.00 0.00 84 1013.8
20260903215150 87 181 2.0 5.0 0.00 0.00 0.00 85 1013.7
20260903214648 87 175 2.0 8.0 0.00 0.00 0.00 85 1013.9
20260903214144 87 87 4.0 6.0 0.00 0.00 0.00 85 1014.3
20260903213638 87 144 2.0 5.0 0.00 0.00 0.00 84 1014.3
20260903213135 87 181 1.0 4.0 0.00 0.00 0.00 84 1014.3
20260903212630 87 134 3.0 4.0 0.00 0.00 0.00 83 1014.5
20260903212126 87 230 0.0 3.0 0.00 0.00 0.00 84 1014.4
20260903211620 87 185 0.0 2.0 0.00 0.00 0.00 84 1014.3
20260903211117 87 137 2.0 4.0 0.00 0.00 0.00 84 1014.5
20260903210612 87 162 0.0 3.0 0.00 0.00 0.00 84 1014.4
20260903210108 87 148 1.0 5.0 0.00 0.00 0.00 85 1014.5
20260903205607 87 131 2.0 5.0 0.00 0.00 0.00 84 1014.4
20260903205106 87 122 0.0 7.0 0.00 0.00 0.00 85 1014.3
20260903204602 87 152 1.0 6.0 0.00 0.00 0.00 84 1014.4
20260903204058 86 136 2.0 10.0 0.00 0.00 0.00 84 1014.4
20260903203553 86 232 2.0 6.0 0.00 0.00 0.00 85 1014.5
20260903203048 86 124 0.0 6.0 0.00 0.00 0.00 88 1014.6
20260903202544 85 149 2.0 9.0 0.00 0.00 0.00 89 1014.2
20260903202038 85 165 3.0 7.0 0.00 0.00 0.00 90 1014.0
20260903201533 84 143 4.0 9.0 0.00 0.00 0.00 91 1014.2
20260903201032 84 139 2.0 5.0 0.02 0.00 0.00 91 1014.4
20260903200527 84 178 1.0 4.0 0.00 0.00 0.00 89 1014.4
20260903200023 85 199 0.0 5.0 0.00 0.00 0.00 83 1014.3
20260903195519 85 221 1.0 3.0 0.00 0.00 0.00 81 1014.4
20260903195014 86 258 3.0 10.0 0.00 0.00 0.00 81 1014.4
20260903194509 88 272 2.0 8.0 0.00 0.00 0.00 79 1014.6
20260903194004 90 246 5.0 7.0 0.00 0.00 0.00 77 1014.7
20260903193455 90 194 5.0 12.0 0.00 0.00 0.00 80 1014.6
20260903192949 91 139 2.0 11.0 0.00 0.00 0.00 76 1014.7
20260903192447 94 194 4.0 13.0 0.00 0.00 0.00 72 1014.5
20260903191941 94 134 7.0 11.0 0.00 0.00 0.00 72 1014.2
20260903191437 94 166 5.0 7.0 0.00 0.00 0.00 72 1014.0
20260903190937 92 188 2.0 7.0 0.00 0.00 0.00 75 1014.1
20260903190431 94 103 5.0 10.0 0.00 0.00 0.00 73 1014.4
20260903185925 93 211 1.0 3.0 0.00 0.00 0.00 74 1014.5
20260903185421 93 129 2.0 5.0 0.00 0.00 0.00 74 1014.5
20260903184915 93 189 3.0 9.0 0.00 0.00 0.00 74 1014.5
20260903184413 94 112 1.0 7.0 0.00 0.00 0.00 73 1014.5
20260903183912 94 215 3.0 6.0 0.00 0.00 0.00 74 1014.5
20260903183407 95 120 2.0 3.0 0.00 0.00 0.00 72 1014.5
20260903182901 94 210 2.0 3.0 0.00 0.00 0.00 71 1014.8
20260903182400 95 171 2.0 10.0 0.00 0.00 0.00 72 1014.4
20260903181855 93 250 2.0 3.0 0.00 0.00 0.00 71 1014.6
20260903181349 94 192 2.0 5.0 0.00 0.00 0.00 71 1014.7
20260903180844 94 244 3.0 4.0 0.00 0.00 0.00 70 1014.8
20260903180343 93 217 0.0 3.0 0.00 0.00 0.00 72 1015.0
20260903175843 93 146 4.0 6.0 0.00 0.00 0.00 72 1015.2
20260903175337 94 301 0.0 3.0 0.00 0.00 0.00 73 1015.3
20260903174832 93 48 0.0 4.0 0.00 0.00 0.00 73 1015.4
20260903174327 92 108 0.0 8.0 0.00 0.00 0.00 75 1015.5
20260903173826 93 74 2.0 3.0 0.00 0.00 0.00 74 1015.3
20260903173322 91 231 2.0 4.0 0.00 0.00 0.00 74 1015.1
20260903172818 92 205 2.0 4.0 0.00 0.00 0.00 73 1015.2
20260903172313 92 185 2.0 5.0 0.00 0.00 0.00 72 1015.5
20260903171808 92 219 1.0 2.0 0.00 0.00 0.00 72 1015.5
20260903171304 93 205 1.0 1.0 0.00 0.00 0.00 73 1015.6
20260903170802 92 125 1.0 5.0 0.00 0.00 0.00 74 1015.6
20260903170257 93 327 0.0 3.0 0.00 0.00 0.00 73 1015.7
20260903165756 92 279 2.0 3.0 0.00 0.00 0.00 76 1015.8
20260903165251 92 305 4.0 4.0 0.00 0.00 0.00 76 1015.9
20260903164745 92 112 4.0 7.0 0.00 0.00 0.00 77 1015.8
20260903164241 91 346 1.0 2.0 0.00 0.00 0.00 80 1015.9
20260903163740 90 304 2.0 3.0 0.00 0.00 0.00 80 1015.6
20260903163237 91 273 1.0 3.0 0.00 0.00 0.00 80 1015.5
20260903162732 89 11 0.0 1.0 0.00 0.00 0.00 82 1015.7
20260903162229 88 333 0.0 1.0 0.00 0.00 0.00 85 1015.7
20260903161724 87 150 0.0 3.0 0.00 0.00 0.00 85 1015.5
20260903161214 86 108 0.0 2.0 0.00 0.00 0.00 88 1015.5
20260903160710 86 180 0.0 2.0 0.00 0.00 0.00 88 1015.4
20260903160208 85 332 0.0 2.0 0.00 0.00 0.00 88 1015.4
20260903155707 85 177 2.0 2.0 0.00 0.00 0.00 88 1015.6
20260903155202 84 66 0.0 2.0 0.00 0.00 0.00 90 1015.6
20260903154658 84 117 0.0 3.0 0.00 0.00 0.00 90 1015.6
20260903154154 83 197 1.0 2.0 0.00 0.00 0.00 90 1015.7
20260903153649 83 136 1.0 4.0 0.00 0.00 0.00 89 1015.5
20260903153145 83 127 1.0 3.0 0.00 0.00 0.00 89 1015.7
20260903152641 82 205 0.0 4.0 0.00 0.00 0.00 89 1015.6
20260903152137 82 165 0.0 2.0 0.00 0.00 0.00 89 1015.5
20260903151637 82 205 0.0 1.0 0.00 0.00 0.00 89 1015.5
20260903151132 82 212 0.0 0.0 0.00 0.00 0.00 89 1015.3
20260903150631 82 147 1.0 2.0 0.00 0.00 0.00 89 1015.3
20260903150126 81 229 0.0 3.0 0.00 0.00 0.00 89 1015.6
20260903145626 81 153 1.0 1.0 0.00 0.00 0.00 90 1015.6
20260903145121 81 186 0.0 1.0 0.00 0.00 0.00 89 1015.6
20260903144620 81 193 0.0 1.0 0.00 0.00 0.00 90 1015.6
20260903144116 81 129 0.0 1.0 0.00 0.00 0.00 90 1015.3
20260903143612 81 69 0.0 1.0 0.00 0.00 0.00 90 1015.4
20260903143108 80 111 0.0 1.0 0.00 0.00 0.00 90 1015.3
20260903142603 80 180 0.0 2.0 0.00 0.00 0.00 90 1015.5
20260903142100 80 25 0.0 1.0 0.00 0.00 0.00 90 1015.7
20260903141555 80 138 1.0 2.0 0.00 0.00 0.00 90 1015.8
20260903141050 80 180 0.0 0.0 0.00 0.00 0.00 90 1015.9
20260903140546 80 191 0.0 2.0 0.00 0.00 0.00 90 1015.8
20260903140041 80 106 1.0 2.0 0.00 0.00 0.00 90 1015.7
20260903135536 80 125 0.0 2.0 0.00 0.00 0.00 90 1015.7
20260903135031 80 188 1.0 3.0 0.00 0.00 0.00 90 1015.7
20260903134531 80 180 0.0 1.0 0.00 0.00 0.00 90 1015.8
20260903134027 80 110 0.0 1.0 0.00 0.00 0.00 90 1015.7
20260903133524 80 150 0.0 0.0 0.00 0.00 0.00 90 1015.9
20260903133019 80 150 0.0 1.0 0.00 0.00 0.00 89 1016.0
20260903132514 80 105 1.0 2.0 0.00 0.00 0.00 88 1015.8
20260903132009 80 171 0.0 3.0 0.00 0.00 0.00 88 1015.7
20260903131504 80 135 0.0 3.0 0.00 0.00 0.00 88 1015.9
20260903131003 81 101 2.0 3.0 0.00 0.00 0.00 88 1015.7
20260903130458 81 124 1.0 4.0 0.00 0.00 0.00 88 1015.7
20260903125956 81 190 0.0 3.0 0.00 0.00 0.00 88 1015.4
20260903125456 81 190 2.0 6.0 0.00 0.00 0.00 88 1015.5
20260903124951 81 209 1.0 3.0 0.00 0.00 0.00 89 1015.5
20260903124446 82 130 3.0 8.0 0.00 0.00 0.00 91 1015.5
20260903123945 82 236 1.0 6.0 0.00 0.00 0.00 96 1015.4
20260903123440 82 154 2.0 3.0 0.00 0.00 0.00 97 1015.4
20260903122938 82 221 0.0 1.0 0.00 0.00 0.00 97 1015.1
20260903122433 82 149 1.0 2.0 0.00 0.00 0.00 98 1015.2
20260903121932 82 135 0.0 1.0 0.00 0.00 0.00 97 1015.0
20260903121427 82 173 0.0 2.0 0.00 0.00 0.00 97 1014.7
20260903120923 82 212 0.0 2.0 0.00 0.00 0.00 97 1014.9
20260903120422 82 216 0.0 1.0 0.00 0.00 0.00 97 1014.6
20260903115921 82 180 0.0 2.0 0.00 0.00 0.00 97 1015.0
20260903115420 82 230 0.0 2.0 0.00 0.00 0.00 97 1014.7
20260903114915 82 191 0.0 2.0 0.00 0.00 0.00 96 1014.9
20260903114410 82 242 0.0 1.0 0.00 0.00 0.00 96 1014.9
20260903113906 83 89 0.0 1.0 0.00 0.00 0.00 95 1014.6
20260903113402 83 218 0.0 2.0 0.00 0.00 0.00 95 1014.7
20260903112857 83 155 0.0 2.0 0.00 0.00 0.00 95 1014.8
20260903112353 83 227 0.0 3.0 0.00 0.00 0.00 95 1014.6
20260903111852 83 205 0.0 2.0 0.00 0.00 0.00 94 1014.5
20260903111351 83 177 0.0 3.0 0.00 0.00 0.00 93 1014.6
20260903110848 83 171 1.0 2.0 0.00 0.00 0.00 93 1014.7
20260903110343 83 202 0.0 3.0 0.00 0.00 0.00 93 1014.7
20260903105838 83 324 0.0 3.0 0.00 0.00 0.00 93 1014.5
20260903105333 83 203 0.0 2.0 0.00 0.00 0.00 93 1014.6
20260903104832 83 196 0.0 2.0 0.00 0.00 0.00 94 1014.6
20260903104327 83 206 2.0 3.0 0.00 0.00 0.00 94 1014.4
20260903103824 83 231 0.0 2.0 0.00 0.00 0.00 94 1014.5
20260903103320 83 203 0.0 2.0 0.00 0.00 0.00 94 1014.6
20260903102816 83 196 1.0 2.0 0.00 0.00 0.00 93 1014.4
20260903102316 83 160 0.0 3.0 0.00 0.00 0.00 93 1014.5
20260903101815 83 200 0.0 3.0 0.00 0.00 0.00 93 1014.5
20260903101310 83 181 1.0 4.0 0.00 0.00 0.00 93 1014.4
20260903100806 83 201 2.0 4.0 0.00 0.00 0.00 93 1014.3
20260903100300 83 180 1.0 2.0 0.00 0.00 0.00 93 1014.4
20260903095757 83 173 0.0 4.0 0.00 0.00 0.00 93 1014.3
20260903095252 83 208 2.0 3.0 0.00 0.00 0.00 93 1014.3
20260903094747 83 164 1.0 3.0 0.00 0.00 0.00 93 1014.2
20260903094242 83 210 2.0 3.0 0.00 0.00 0.00 93 1014.2
20260903093737 83 313 0.0 4.0 0.00 0.00 0.00 93 1014.4
20260903093233 83 206 0.0 3.0 0.00 0.00 0.00 93 1014.4
20260903092732 83 130 2.0 2.0 0.00 0.00 0.00 93 1014.5
20260903092227 83 147 2.0 3.0 0.00 0.00 0.00 93 1014.3
20260903091726 12 314 0.0 2.0 0.00 0.00 0.00 41 1014.3
20260903091220 12 168 1.0 3.0 0.00 0.00 0.00 41 1014.4
20260903090716 12 202 1.0 5.0 0.00 0.00 0.00 41 1014.5
20260903090214 12 139 2.0 2.0 0.00 0.00 0.00 41 1014.5
20260903085713 12 141 3.0 4.0 0.00 0.00 0.00 41 1014.6
20260903085209 12 210 0.0 4.0 0.00 0.00 0.00 41 1014.6
20260903084707 12 204 0.0 3.0 0.00 0.00 0.00 41 1014.3
20260903084201 12 173 2.0 6.0 0.00 0.00 0.00 41 1014.6
20260903083658 12 131 2.0 2.0 0.00 0.00 0.00 41 1014.3
20260903083157 12 145 0.0 3.0 0.00 0.00 0.00 41 1014.4
20260903082651 12 138 2.0 3.0 0.00 0.00 0.00 41 1014.4
20260903082148 12 190 0.0 2.0 0.00 0.00 0.00 41 1014.3
20260903081642 83 120 1.0 5.0 0.00 0.00 0.00 93 1014.2
20260903081138 83 175 1.0 5.0 0.00 0.00 0.00 93 1014.3
20260903080634 83 240 2.0 4.0 0.00 0.00 0.00 92 1014.2
20260903080132 83 218 0.0 3.0 0.00 0.00 0.00 93 1014.1
20260903075631 83 239 1.0 3.0 0.00 0.00 0.00 92 1014.3
20260903075126 83 203 2.0 5.0 0.00 0.00 0.00 92 1014.2
20260903074625 84 297 2.0 3.0 0.00 0.00 0.00 92 1014.2
20260903074120 84 247 2.0 3.0 0.00 0.00 0.00 92 1014.3
20260903073615 84 219 2.0 5.0 0.00 0.00 0.00 92 1014.2
20260903073111 84 250 3.0 5.0 0.00 0.00 0.00 92 1014.1
20260903072607 84 214 2.0 2.0 0.00 0.00 0.00 92 1014.2
20260903072103 84 210 1.0 2.0 0.00 0.00 0.00 92 1014.3
20260903071559 84 235 0.0 3.0 0.00 0.00 0.00 91 1014.4
20260903071059 84 60 0.0 3.0 0.00 0.00 0.00 91 1014.3
20260903070559 84 180 2.0 4.0 0.00 0.00 0.00 91 1014.5
20260903070055 84 147 1.0 2.0 0.00 0.00 0.00 91 1014.4
20260903065554 84 195 1.0 6.0 0.00 0.00 0.00 91 1014.4
20260903065049 84 209 0.0 5.0 0.00 0.00 0.00 92 1014.7
20260903064549 84 190 1.0 3.0 0.00 0.00 0.00 91 1014.8
20260903064044 84 101 3.0 4.0 0.00 0.00 0.00 92 1014.6
20260903063539 84 196 0.0 6.0 0.00 0.00 0.00 92 1014.7
20260903063035 84 284 1.0 5.0 0.00 0.00 0.00 91 1014.9
20260903062530 84 157 1.0 3.0 0.00 0.00 0.00 91 1014.7
20260903062025 84 195 2.0 5.0 0.00 0.00 0.00 91 1015.0
20260903061521 84 148 1.0 5.0 0.00 0.00 0.00 91 1015.1
20260903061021 84 284 0.0 3.0 0.00 0.00 0.00 91 1015.0
20260903060520 84 187 0.0 3.0 0.00 0.00 0.00 91 1015.1
20260903060015 84 217 0.0 2.0 0.00 0.00 0.00 91 1015.1
20260903055513 84 269 0.0 2.0 0.00 0.00 0.00 90 1015.3
20260903055012 84 191 0.0 4.0 0.00 0.00 0.00 90 1015.2
20260903054507 84 133 2.0 5.0 0.00 0.00 0.00 90 1015.2
20260903054003 84 275 1.0 2.0 0.00 0.00 0.00 90 1015.3
20260903053503 84 89 0.0 4.0 0.00 0.00 0.00 89 1015.3
20260903052959 84 187 2.0 3.0 0.00 0.00 0.00 90 1015.2
20260903052455 84 232 0.0 4.0 0.00 0.00 0.00 89 1015.0
20260903051950 84 111 5.0 5.0 0.00 0.00 0.00 89 1015.2
20260903051445 84 196 0.0 3.0 0.00 0.00 0.00 89 1015.1
20260903050941 84 232 1.0 3.0 0.00 0.00 0.00 89 1015.2
20260903050439 84 179 2.0 2.0 0.00 0.00 0.00 89 1015.4
20260903045934 84 164 1.0 3.0 0.00 0.00 0.00 89 1015.2
20260903045430 84 175 1.0 5.0 0.00 0.00 0.00 88 1015.4
20260903044926 84 142 3.0 5.0 0.00 0.00 0.00 88 1015.3
20260903044427 84 197 0.0 3.0 0.00 0.00 0.00 88 1015.8
20260903043923 84 171 1.0 3.0 0.00 0.00 0.00 88 1015.5
20260903043419 84 195 0.0 4.0 0.00 0.00 0.00 88 1015.8
20260903042917 85 156 2.0 4.0 0.00 0.00 0.00 88 1015.6
20260903042413 85 201 1.0 5.0 0.00 0.00 0.00 88 1015.7
20260903041908 85 98 3.0 5.0 0.00 0.00 0.00 88 1015.4
20260903041404 85 184 1.0 8.0 0.00 0.00 0.00 88 1015.5
20260903040900 85 122 2.0 6.0 0.00 0.00 0.00 88 1015.7
20260903040359 85 147 2.0 4.0 0.00 0.00 0.00 88 1015.5
20260903035855 85 271 1.0 3.0 0.00 0.00 0.00 88 1015.7
20260903035350 85 135 0.0 3.0 0.00 0.00 0.00 89 1015.6
20260903034845 85 179 1.0 4.0 0.00 0.00 0.00 88 1015.5
20260903034341 85 164 1.0 5.0 0.00 0.00 0.00 88 1015.4
20260903033836 85 199 3.0 4.0 0.00 0.00 0.00 88 1015.3
20260903033331 85 154 6.0 10.0 0.00 0.00 0.00 88 1015.0
20260903032830 85 134 1.0 5.0 0.00 0.00 0.00 88 1015.3
20260903032326 85 203 0.0 4.0 0.00 0.00 0.00 88 1015.4
20260903031821 85 18 0.0 2.0 0.00 0.00 0.00 88 1015.3
20260903031321 85 170 2.0 5.0 0.00 0.00 0.00 88 1015.3
20260903030817 85 102 2.0 6.0 0.00 0.00 0.00 88 1015.3
20260903030313 85 206 1.0 5.0 0.00 0.00 0.00 88 1015.1
20260903025808 85 217 0.0 8.0 0.00 0.00 0.00 88 1015.1
20260903025306 85 162 1.0 6.0 0.00 0.00 0.00 89 1015.0
20260903024758 85 143 1.0 3.0 0.00 0.00 0.00 89 1014.9
20260903024257 85 208 2.0 5.0 0.00 0.00 0.00 89 1014.7
20260903023753 85 210 2.0 7.0 0.00 0.00 0.00 89 1014.8
20260903023249 85 217 0.0 5.0 0.00 0.00 0.00 89 1014.8
20260903022749 85 145 4.0 6.0 0.00 0.00 0.00 89 1014.8
20260903022248 85 127 1.0 6.0 0.00 0.00 0.00 89 1014.4
20260903021747 85 160 3.0 4.0 0.00 0.00 0.00 89 1014.3
20260903021243 85 146 2.0 3.0 0.00 0.00 0.00 89 1014.4
20260903020743 85 184 0.0 5.0 0.00 0.00 0.00 89 1014.3
20260903020237 85 236 1.0 4.0 0.00 0.00 0.00 90 1014.3
20260903015732 85 127 6.0 11.0 0.00 0.00 0.00 89 1014.4
20260903015228 85 138 2.0 5.0 0.00 0.00 0.00 89 1014.3
20260903014723 85 134 1.0 5.0 0.00 0.00 0.00 89 1014.2
20260903014222 85 154 1.0 6.0 0.00 0.00 0.00 89 1014.3
20260903013718 85 201 1.0 9.0 0.00 0.00 0.00 89 1014.2
20260903013217 86 94 2.0 3.0 0.00 0.00 0.00 89 1014.3
20260903012716 86 140 0.0 6.0 0.00 0.00 0.00 88 1014.3
20260903012215 86 120 3.0 6.0 0.00 0.00 0.00 88 1014.2
20260903011710 86 166 0.0 6.0 0.00 0.00 0.00 88 1014.3
20260903011210 86 156 3.0 7.0 0.00 0.00 0.00 87 1013.9
20260903010706 86 174 4.0 9.0 0.00 0.00 0.00 87 1013.8
20260903010205 86 8 0.0 4.0 0.00 0.00 0.00 86 1013.7
20260903005704 86 150 6.0 11.0 0.00 0.00 0.00 86 1013.5